Location: Bannatyne
(13.0833°N, 59.5333°W)
Time: 15:03:17
(UTC+00:00)

deb Explorer IX - All Passes

Search period start: 24 January 2020 00:00
Search period end: 03 February 2020 00:00
Orbit: 548 x 1101 km, 38.8° (Epoch: 23 January)

Date Brightness Start Highest point End Pass type
(mag) Time Alt. Az. Time Alt. Az. Time Alt. Az.
24 Jan - 01:11:12 10° W 01:16:55 29° NNW 01:23:02 10° NNE visible
24 Jan - 06:43:03 10° N 06:46:05 13° NNE 06:48:59 10° NE visible
24 Jan - 08:28:23 10° NW 08:34:34 44° NE 08:39:53 10° ESE visible
24 Jan - 10:16:24 10° WNW 10:21:32 31° SW 10:26:02 10° SSE daylight
24 Jan - 21:18:11 10° SSE 21:20:05 11° SE 21:22:03 10° ESE daylight
24 Jan - 23:00:43 10° SW 23:06:44 74° SE 23:13:40 10° NE visible
25 Jan - 00:48:57 10° W 00:54:30 28° NNW 01:00:29 10° NNE visible
25 Jan - 06:20:22 10° N 06:23:44 14° NNE 06:26:57 10° NE night (unlit)
25 Jan - 08:05:51 10° NW 08:12:13 46° NE 08:17:43 10° ESE visible
25 Jan - 09:53:56 10° WNW 09:59:13 31° SW 10:03:51 10° SSE visible
25 Jan - 20:56:03 10° SSE 20:57:45 11° SE 20:59:31 10° ESE daylight
25 Jan - 22:38:29 10° SW 22:44:21 75° SE 22:51:09 10° NE visible
26 Jan - 00:26:44 10° W 00:32:06 27° NNW 00:37:57 10° NNE visible
26 Jan - 05:57:43 10° N 06:01:21 14° NNE 06:04:51 10° NE night (unlit)
26 Jan - 07:43:18 10° NW 07:49:50 48° NE 07:55:32 10° ESE visible
26 Jan - 09:31:26 10° WNW 09:36:53 31° SW 09:41:39 10° SSE visible
26 Jan - 20:33:55 10° SSE 20:35:25 11° SE 20:36:57 10° ESE daylight
26 Jan - 22:16:15 10° SW 22:21:57 77° SE 22:28:37 10° NE visible
27 Jan - 00:04:32 10° W 00:09:42 26° NNW 00:15:23 10° NNE visible
27 Jan - 05:35:05 10° N 05:38:58 15° NNE 05:42:42 10° NE night (unlit)
27 Jan - 07:20:45 10° NW 07:27:27 50° NE 07:33:19 10° ESE visible
27 Jan - 09:08:56 10° WNW 09:14:31 31° SW 09:19:26 10° SSE visible
27 Jan - 20:11:48 10° SSE 20:13:04 11° SE 20:14:22 10° ESE daylight
27 Jan - 21:54:02 10° SW 21:59:35 78° SE 22:06:06 10° NE daylight
27 Jan - 23:42:20 10° W 23:47:19 25° NNW 23:52:48 10° NNE visible
28 Jan - 05:12:29 10° NNW 05:16:34 16° NNE 05:20:30 10° ENE night (unlit)
28 Jan - 06:58:12 10° NW 07:05:02 52° NE 07:11:05 10° ESE visible
28 Jan - 08:46:25 10° WNW 08:52:08 31° SW 08:57:11 10° SSE visible
28 Jan - 19:49:45 10° SE 19:50:44 10° SE 19:51:45 10° ESE daylight
28 Jan - 21:31:50 10° SW 21:37:12 80° SE 21:43:34 10° NE daylight
28 Jan - 23:20:10 10° W 23:24:56 24° NNW 23:30:12 10° NNE visible
29 Jan - 04:49:54 10° NNW 04:54:09 16° NNE 04:58:15 10° ENE night (unlit)
29 Jan - 06:35:39 10° NW 06:42:36 53° NE 06:48:49 10° ESE visible
29 Jan - 08:23:53 10° WNW 08:29:44 31° SW 08:34:55 10° SSE visible
29 Jan - 19:27:46 10° SE 19:28:24 10° SE 19:29:04 10° SE daylight
29 Jan - 21:09:37 10° SW 21:14:50 81° SE 21:21:02 10° NE daylight
29 Jan - 22:58:00 10° WNW 23:02:33 22° NNW 23:07:35 10° NNE visible
30 Jan - 04:27:20 10° NNW 04:31:43 17° NNE 04:35:59 10° ENE night (unlit)
30 Jan - 06:13:05 10° NW 06:20:08 55° NE 06:26:32 10° ESE visible
30 Jan - 08:01:22 10° WNW 08:07:18 31° SW 08:12:38 10° SSE visible
30 Jan - 20:47:26 10° SW 20:52:29 83° SE 20:58:30 10° NE daylight
30 Jan - 22:35:52 10° WNW 22:40:11 21° NNW 22:44:58 10° NNE visible
31 Jan - 04:04:47 10° NNW 04:09:16 17° NNE 04:13:40 10° ENE night (unlit)
31 Jan - 05:50:32 10° NW 05:57:40 56° NE 06:04:13 10° ESE night (unlit)
31 Jan - 07:38:49 10° WNW 07:44:52 31° SW 07:50:19 10° SSE visible
31 Jan - 20:25:14 10° SW 20:30:08 85° SE 20:35:58 10° NE daylight
31 Jan - 22:13:44 10° WNW 22:17:49 20° NNW 22:22:19 10° NNE visible
01 Feb - 03:42:16 10° NNW 03:46:48 17° NNE 03:51:19 10° ENE night (unlit)
01 Feb - 05:28:00 10° NW 05:35:10 58° NE 05:41:52 10° ESE night (unlit)
01 Feb - 07:16:18 10° WNW 07:22:24 31° SW 07:27:58 10° SSE visible
01 Feb - 20:03:02 10° SW 20:07:49 87° SE 20:13:26 10° NE daylight
01 Feb - 21:51:38 10° WNW 21:55:27 19° NNW 21:59:40 10° NNE daylight
02 Feb - 03:19:46 10° NNW 03:24:21 17° NNE 03:28:55 10° ENE night (unlit)
02 Feb - 05:05:27 10° NW 05:12:40 59° NE 05:19:30 10° ESE night (unlit)
02 Feb - 06:53:45 10° WNW 06:59:55 31° SW 07:05:36 10° SSE visible
02 Feb - 19:40:50 10° SW 19:45:29 90° SE 19:50:56 10° NE daylight
02 Feb - 21:29:32 10° WNW 21:33:06 18° NNW 21:37:00 10° NNE daylight
